Regional Weather Roundup
Issued by NWS Little Rock, AR

Home | Current Version | Previous Version | Text Only | Print | Product List | Glossary Off
Versions: 1 2 3 4 5 6 7 8 9 10 11 12 13 14 15 16 17 18 19 20 21 22 23 24 25 26 27 28 29 30 31 32 33 34 35 36 37 38 39 40 41 42 43 44 45 46 47 48 49 50

672
ASUS44 KLZK 300205
RWRLZK

WEATHER ROUNDUP FOR ARKANSAS
NATIONAL WEATHER SERVICE LITTLE ROCK AR
900 PM CDT FRI JUL 29 2016

NOTE: "FAIR" INDICATES FEW OR NO CLOUDS BELOW 12,000 FEET WITH NO
SIGNIFICANT WEATHER AND/OR OBSTRUCTIONS TO VISIBILITY.

ARZ001-003-010-029-300300-
NORTHWEST ARKANSAS

CITY           SKY/WX    TMP DP  RH WIND       PRES   REMARKS
FAYETTEVILLE   CLOUDY    74  74 100 CALM      29.97R
FORT SMITH     CLOUDY    83  68  60 SE3       29.92S HX  86
HARRISON       PTCLDY    73  72  96 S3        29.99R
BENTONVILLE    CLOUDY    77  66  69 CALM      29.99R
ROGERS         CLOUDY    77  71  82 CALM      29.99S
SILOAM SPGS    CLEAR     79  64  61 CALM      29.99S
HIGHFILL       CLOUDY    78  73  84 NW3       29.98S
SPRINGDALE     PTCLDY    81  72  74 CALM      30.00R
$$

ARZ004-005-016-300300-
NORTH CENTRAL ARKANSAS

CITY           SKY/WX    TMP DP  RH WIND       PRES   REMARKS
BATESVILLE     PTCLDY    72  70  94 CALM      29.97R
FLIPPIN        CLOUDY    73  70  88 CALM      29.94S
MTN HOME       CLEAR     72  71  97 CALM      29.96S
$$

ARZ040-041-300300-
WEST CENTRAL ARKANSAS

CITY           SKY/WX    TMP DP  RH WIND       PRES   REMARKS
MENA             N/A    N/A N/A N/A MISG        N/A
MOUNT IDA      LGT RAIN  76  74  93 CALM      29.97R FOG
$$

ARZ009-017-025-026-028-300300-
NORTHEAST ARKANSAS

CITY           SKY/WX    TMP DP  RH WIND       PRES   REMARKS
CORNING          N/A     73  73 100 CALM      29.95R
JONESBORO      MOCLDY    75  71  87 S6        29.94R
NEWPORT        CLOUDY    75  75 100 CALM      29.96R
WALNUT RIDGE   MOCLDY    73  70  88 W6        29.94R
BLYTHEVILLE    CLOUDY    74  74 100 CALM      29.93R
$$

ARZ022-023-033-042-044-300300-
CENTRAL ARKANSAS

CITY           SKY/WX    TMP DP  RH WIND       PRES   REMARKS
LITTLE ROCK    CLOUDY    77  71  82 CALM      29.94S
N LITTLE ROCK    N/A     74  72  92 CALM      29.93R
JACKSONVILLE   CLOUDY    75  74  99 E3        29.94R
SEARCY         MOCLDY    73  72  96 CALM      30.07S
HOT SPRINGS    CLOUDY    79  73  82 CALM      29.97R
RUSSELLVILLE   CLOUDY    76  73  91 CALM      29.94R
$$

ARZ036-300300-
EAST ARKANSAS

CITY           SKY/WX    TMP DP  RH WIND       PRES   REMARKS
WEST MEMPHIS   CLOUDY    72  71  97 NW5       29.94R
$$

ARZ050-053-066-070-073-300300-
SOUTHWEST ARKANSAS

CITY           SKY/WX    TMP DP  RH WIND       PRES   REMARKS
ARKADELPHIA    TSTM      72  68  87 E5        29.93F
CAMDEN         PTCLDY    79  72  78 CALM      29.94S
TEXARKANA      CLEAR     83  76  79 S5        29.95R HX  91
EL DORADO      CLEAR     81  77  88 CALM      29.95R HX  88
DE QUEEN       TSTM      72  70  93 W9        29.97R VSB 1
$$

ARZ056-057-069-300300-
SOUTHEAST ARKANSAS

CITY           SKY/WX    TMP DP  RH WIND       PRES   REMARKS
PINE BLUFF     MOCLDY    73  71  93 E3        29.95S
STUTTGART      CLOUDY    75  70  83 SE6       29.95R
MONTICELLO     CLOUDY    76  73  91 SE6       29.94F THUNDER

$$






USA.gov is the U.S. government's official web portal to all federal, state and local government web resources and services.